Regional Weather Roundup
Issued by NWS Cleveland, OH

Home | Current Version | Previous Version | Text Only | Print | Product List | Glossary Off
Versions: 1 2 3 4 5 6 7 8 9 10 11 12 13 14 15 16 17 18 19 20 21 22 23 24 25 26 27 28 29 30 31 32 33 34 35 36 37 38 39 40 41 42 43 44 45 46 47 48 49 50

000
ASUS41 KCLE 021110
RWRCLE
OHIO REGIONAL WEATHER ROUNDUP
NATIONAL WEATHER SERVICE CLEVELAND, OH
700 AM EDT TUE SEP 02 2014

NOTE: "FAIR" INDICATES FEW OR NO CLOUDS BELOW 12,000 FEET WITH NO
SIGNIFICANT WEATHER AND/OR OBSTRUCTIONS TO VISIBILITY.

OHZ001>008-015>018-024>027-034-035-043-044-021200-
   NORTHWEST OHIO

CITY           SKY/WX    TMP DP  RH WIND       PRES   REMARKS
DEFIANCE       LGT RAIN  69  65  86 SW12G21   29.91F
FINDLAY        LGT RAIN  72  67  84 W18       29.94R
TOLEDO EXPRESS LGT RAIN  69  66  90 SW13      29.90R
TOLEDO EXEC    CLOUDY    70  66  87 SW9       29.91R
LIMA           LGT RAIN  70  65  84 SW13      29.96R
$$

OHZ009>014-019>023-028>033-038-089-021200-
   NORTHEAST OHIO

CITY           SKY/WX    TMP DP  RH WIND       PRES   REMARKS
CLE-HOPKINS    MOCLDY    70  67  90 SW6       29.94R
CLE-LAKEFRONT  PTCLDY    73  67  81 SW10      29.90R
CUY CO. ARPT   MOCLDY    72  70  94 SW12      29.93
LORAIN-ELYRIA  MOCLDY    73  68  84 SW7       29.93R
ASHTABULA      PTCLDY    69  67  93 SW3       29.92S FOG
AKRON-CANTON   MOCLDY    71  68  90 SW9       29.96R
WOOSTER        MOCLDY    70  68  93 SW6       29.97R FOG
MANSFIELD      CLOUDY    71  69  93 SW6       29.97R
YOUNGSTOWN     MOCLDY    70  68  93 S7        29.95R FOG
$$

OHZ042-051>053-060>062-070>072-077>081-021200-
  SOUTHWEST OHIO

CITY           SKY/WX    TMP DP  RH WIND       PRES   REMARKS
CINC-COVINGTON TSTM      68  66  94 N13       30.01R FOG
CINC-LUNKEN    CLOUDY    72  64  76 NW13G28   30.01R THUNDER
HAMILTON       HVY RAIN  67  66  97 NW6       30.01F FOG
DAYTON         RAIN      69  66  90 W12       30.01R FOG
WRIGHT-PAT AFB LGT RAIN  69  67  94 W8        30.00R
DAYTON GENERAL TSTM      68  66  93 W8        30.02R FOG
WILMINGTON     CLOUDY    71  67  87 NW15G28   29.99R
$$

OHZ036-037-039>041-045>050-054>059-063>069-073>076-082>088-021200-
  CENTRAL AND SOUTHEAST OHIO

CITY           SKY/WX    TMP DP  RH WIND       PRES   REMARKS
COLUMBUS       TSTM      73  70  88 W3        29.96R
OSU AIRPORT    LGT RAIN  71  69  93 SW5       29.97R
BOLTON FIELD   TSTM      69  69 100 SW3       29.98R
RICKENBACK AFB TSTM      71  66  86 SW7       29.98R
NEWARK         PTCLDY    70  68  93 W3        29.96S
MARION         CLOUDY    72  69  90 SW9       29.97R
LANCASTER      TSTM      74  70  87 VRB3      29.99R FOG
ZANESVILLE     PTCLDY    70  67  90 S5        29.97F
NEW PHILLY     PTCLDY    71  70  96 SW3       29.97S
$$



USA.gov is the U.S. government's official web portal to all federal, state and local government web resources and services.